Погода в Уайтайанге

Новая Зеландия     36°49′57″S   175°40′30″E
темп.,
°C
ветер,
м/с
пор.,
м/с
влажн.,
%
обл.,
%
осадки,
мм/ч
давл.,
гПа
погр.,
м
21 января, пт
пт2101:00+17юз4867100 0.1 1014480
04:00+16юз4867100 0.0 1014640
07:00+15юз377388 0.0 1015403
10:00+20юз4649100 0.0 10151515
13:00+23зюз464928 0.0 1015980
16:00+24з46431 0.0 1013621
19:00+23з45460 0.0 1014342
22:00+18юз46600 0.0 1018236
22 января, сб
сб2201:00+18в57770 0.0 1019498
04:00+19всв568017 0.0 1019656
07:00+19всв457631 0.1 1020693
10:00+20всв557032 0.0 1021997
13:00+20всв446615 0.1 1020859
16:00+20всв446710 0.0 1019672
19:00+20ссв3469100 0.0 1018602
22:00+19с2375100 0.0 1019460
23 января, вс
вс2301:00+18с12775 0.0 1018495
04:00+18сз127984 0.0 1017520
07:00+18с028075 0.0 1016225
10:00+20ссв2270100 0.0 1016594
13:00+20с3372100 0.0 1015488
16:00+20ссз3373100 0.0 1014506
19:00+18юз3388100 0.6 1014198
22:00+18ю2380100 0.1 1014196
24 января, пн
пн2401:00+18сз2375100 0.1 1014322
04:00+17ссв4678100 0.2 1013456
07:00+18ссв4574100 0.2 1014585
10:00+18св4583100 0.8 1014540
13:00+18всв3487100 2.3 1014500
16:00+18всв4589100 1.2 1013582
19:00+18всв5687100 1.6 1013611
22:00+19всв5685100 0.2 1014619
25 января, вт
вт2501:00+19всв4684100 0.5 1014600
04:00+19всв4588100 0.4 1013475
07:00+19всв5687100 0.8 1013559
10:00+20всв5685100 0.3 1014648
13:00+21св6778100 0.5 1014841
16:00+21св5679100 0.2 1012780
19:00+20св5687100 0.6 1011576
22:00+20св5789100 0.6 1012507